Weather History for Plattsburgh, NY

Change the Weather History Date:

Friday, December 7, 2012

  Actual Average Record
Temperature  
Mean Temperature 31 °F 28 °F  
Max Temperature 39 °F 36 °F 55 °F (1951)
Min Temperature 22 °F 20 °F -1 °F (1964)
Degree Days  
Heating Degree Days 34 37  
Month to date heating degree days 205 251  
Since 1 July heating degree days 1768 1885  
Moisture  
Dew Point 23 °F    
Average Humidity 70    
Maximum Humidity 92    
Minimum Humidity 48    
Precipitation  
Precipitation 0.00 in - 0.80 in (1959)
Month to date precipitation 0.46  
Year to date precipitation 25.04  
Sea Level Pressure  
Sea Level Pressure 30.05 in    
Wind  
Wind Speed 4 mph (South)    
Max Wind Speed 13 mph    
Max Gust Speed 16 mph    
Visibility 10 miles    
Events      
T = Trace of Precipitation, MM = Missing Value Source: NWS Daily Summary

Daily Weather History Graph

Daily Weather History Graph

Search for Another Location

Airport:

Trip Planner

Search our weather history database for the weather conditions in past years. The results will help you decide how hot, cold, wet, or windy it might be!

Date:

Astronomy

Dec. 07, 2012 Rise Set
Actual Time 7:17 AM EST 4:13 PM EST
Civil Twilight 6:44 AM EST 4:46 PM EST
Nautical Twilight 6:07 AM EST 5:23 PM EST
Astronomical Twilight 5:32 AM EST 5:58 PM EST
Moon 12:19 AM EST (12/7) 12:21 PM EST (12/7)
Length of Visible Light 10h 02m
Length of Day
8h 56m
Last Quarter, 39% of the Moon is Illuminated
Dec 7
Last Quarter
Dec 13
New
Dec 20
First Quarter
Dec 28
Full
Jan 4
Last Quarter

Hourly Weather History & Observations

Time (EST) Temp. Windchill Dew Point Humidity Pressure Visibility Wind Dir Wind Speed Gust Speed Precip Events Conditions
12:53 AM 24.1 °F - 19.9 °F 84% 30.14 in 10.0 mi Calm Calm - N/A   Clear
1:53 AM 21.9 °F - 19.0 °F 89% 30.14 in 10.0 mi Calm Calm - N/A   Clear
2:53 AM 25.0 °F 20.7 °F 19.9 °F 81% 30.12 in 10.0 mi South 3.5 mph - N/A   Clear
3:53 AM 28.0 °F 24.2 °F 21.0 °F 75% 30.09 in 10.0 mi South 3.5 mph - N/A   Clear
4:53 AM 28.0 °F 19.3 °F 21.0 °F 75% 30.07 in 10.0 mi South 9.2 mph - N/A   Clear
5:53 AM 32.0 °F 25.6 °F 19.0 °F 59% 30.06 in 10.0 mi South 6.9 mph - N/A   Clear
6:53 AM 32.0 °F 28.7 °F 19.0 °F 59% 30.06 in 10.0 mi SSW 3.5 mph - N/A   Clear
7:53 AM 30.9 °F 27.5 °F 21.0 °F 67% 30.06 in 10.0 mi South 3.5 mph - N/A   Clear
8:53 AM 33.1 °F 28.7 °F 19.9 °F 59% 30.06 in 10.0 mi South 4.6 mph - N/A   Clear
9:53 AM 35.1 °F 32.2 °F 19.0 °F 52% 30.07 in 10.0 mi SSW 3.5 mph - N/A   Clear
10:53 AM 37.0 °F 31.6 °F 19.9 °F 50% 30.04 in 10.0 mi South 6.9 mph - N/A   Clear
11:53 AM 37.9 °F 35.5 °F 19.9 °F 48% 30.03 in 10.0 mi SSE 3.5 mph - N/A   Scattered Clouds
12:53 PM 39.0 °F 32.3 °F 21.0 °F 49% 30.02 in 10.0 mi SSE 10.4 mph - N/A   Clear
1:53 PM 37.9 °F 30.9 °F 24.1 °F 57% 30.01 in 10.0 mi SSE 10.4 mph - N/A   Mostly Cloudy
2:53 PM 37.9 °F 32.7 °F 24.1 °F 57% 30.01 in 10.0 mi SSE 6.9 mph - N/A   Mostly Cloudy
3:53 PM 37.9 °F 35.5 °F 25.0 °F 60% 30.01 in 10.0 mi SSE 3.5 mph - N/A   Overcast
4:53 PM 37.0 °F 33.3 °F 26.1 °F 65% 30.01 in 10.0 mi South 4.6 mph - N/A   Mostly Cloudy
5:53 PM 35.1 °F - 26.1 °F 70% 30.01 in 10.0 mi Calm Calm - N/A   Clear
6:53 PM 35.1 °F 32.2 °F 26.1 °F 70% 30.01 in 10.0 mi South 3.5 mph - N/A   Scattered Clouds
7:53 PM 34.0 °F - 27.0 °F 75% 30.01 in 10.0 mi Calm Calm - N/A   Mostly Cloudy
8:53 PM 33.1 °F - 27.0 °F 78% 30.01 in 10.0 mi Calm Calm - N/A   Overcast
9:53 PM 30.9 °F - 27.0 °F 85% 30.02 in 10.0 mi Calm Calm - N/A   Partly Cloudy
10:53 PM 30.0 °F - 27.0 °F 88% 30.02 in 10.0 mi Calm Calm - N/A   Overcast
11:53 PM 32.0 °F - 28.0 °F 85% 30.02 in 10.0 mi Calm Calm - N/A   Overcast